sat.trackr.live / text

‹ back to catalog

STARLINK-5043

NORAD 53894 · 2022-119J

PAYLOAD ACTIVE UNKNOWN

§ Identity

Operator
Country
US
Launch date
2022-09-24
Launch site
AFETR
Launch vehicle
Mass (kg)
RCS (m²)

Purposes: comms

External: N2YO · Heavens-Above · Gunter

§ Orbital elements

Epoch: 2026-05-25T04:00:03.998880Z

Period
94.21 min
Inclination
53.2186°
Eccentricity
0.0001848
Mean motion
15.28520712 rev/d
Perigee alt
479.0 km
Apogee alt
481.5 km
Semi-major
6,858.4 km
B*
2.1123e-3
RAAN
338.9649°
Arg perigee
68.3870°
Mean anomaly
33.8282°
Rev number
573

§ Raw data

STARLINK-50431 53894U 22119J   26145.16671295  .00059532  00000+0  21123-2 0  99932 53894  53.2186 338.9649 0001848  68.3870  33.8282 15.28520712  5735

JSON: /api/v1/satellites/53894 · /tle

For live sub-satellite position, see the globe view (requires WebGL).

§ Visibility from observer

Set your observer location to see the next 7 days of passes ≥ 10°. The values pass through the URL so the page stays shareable.

No JS? Fill the form by hand. The geolocation button needs JavaScript.